Zurück zum Katalog

STARLINK-11323

AktivKommunikationVLEO
NORAD 61533·PAYLOAD·🇺🇸 United States

Gestartet Oct 15, 2024 von Vandenberg Space Force Base

Loading…

Nächste Überflüge (nächste 24 Stunden)

TLE

AktuellSource: CelesTrak SupGP

Epoche: Sep 14, 2026, 21:15 UTC

1 61533C 24184B   26257.88590278  .00063538  00000+0  52316-3 0  2577
2 61533  53.1572  23.5688 0001048  75.2557 266.3577 15.69688173    10

Verfolge STARLINK-11323 in Echtzeit mit AllMySat

Download on the App Store